EST,Max TemperatureF,Mean TemperatureF,Min TemperatureF,Max Dew PointF,MeanDew PointF,Min DewpointF,Max Humidity, Mean Humidity, Min Humidity, Max Sea Level PressureIn, Mean Sea Level PressureIn, Min Sea Level PressureIn, Max VisibilityMiles, Mean VisibilityMiles, Min VisibilityMiles, Max Wind SpeedMPH, Mean Wind SpeedMPH, Max Gust SpeedMPH,PrecipitationIn, CloudCover, Events, WindDirDegrees
2013-1-1,29,24,20,18,12,8,73,57,42,30.15,30.08,30.03,10,10,3,15,7,20,0.00,8,Snow,306
2013-1-2,30,26,21,22,18,12,74,69,62,30.13,30.10,30.05,10,8,2,14,8,20,0.00,8,Snow,256
2013-1-3,32,26,20,25,20,12,82,71,63,30.13,30.07,30.02,10,7,2,20,9,24,0.00,8,Snow,245
2013-1-4,37,32,28,25,23,20,77,68,60,30.14,30.05,29.98,10,10,7,31,19,38,0.00,6,,257
2013-1-5,38,30,22,32,25,18,87,76,55,30.20,30.10,29.94,10,6,2,15,8,21,0.00,3,Snow,208
2013-1-6,37,36,34,33,29,24,85,76,60,30.25,29.98,29.84,10,8,3,18,12,26,0.00,8,Snow,273
2013-1-7,39,34,29,24,22,17,77,61,40,30.30,30.20,30.08,10,10,5,21,10,25,0.00,2,,217
2013-1-8,39,34,28,28,24,21,76,67,61,30.18,30.13,30.08,10,8,5,13,9,20,0.00,0,,195
2013-1-9,47,40,34,32,28,20,74,59,37,30.39,30.14,29.95,10,10,4,33,16,44,0.00,2,Rain,252
2013-1-10,46,36,27,33,27,23,88,70,43,30.53,30.39,30.08,10,9,2,15,6,20,0.02,1,Rain,132
2013-1-11,54,46,38,51,43,33,88,84,76,30.08,29.81,29.70,10,7,1,17,12,28,0.67,7,Rain,185
2013-1-12,59,50,41,46,40,27,83,66,44,29.92,29.84,29.75,10,10,7,23,11,29,0.02,2,Rain,238
2013-1-13,41,34,28,36,32,19,89,84,67,30.06,29.90,29.79,10,6,1,21,8,28,0.18,8,Rain-Snow,306
2013-1-14,28,24,19,19,16,14,79,70,56,30.40,30.31,30.07,10,9,4,21,11,34,0.00,5,Snow,272
2013-1-15,31,23,15,18,16,11,84,73,54,30.39,30.30,30.12,10,10,7,7,3,,0.00,0,,203
2013-1-16,37,28,18,31,21,13,85,69,48,30.10,29.89,29.75,10,10,4,29,11,36,0.00,3,,233
2013-1-17,36,28,20,29,17,7,75,59,44,30.30,30.16,29.94,10,10,7,21,9,26,0.00,7,Snow,295
2013-1-18,40,28,18,23,16,6,75,57,45,30.37,30.17,29.86,10,10,7,28,10,33,0.00,4,,214
2013-1-19,46,42,38,34,29,23,64,58,51,29.86,29.75,29.54,10,10,10,33,17,45,0.00,4,Rain,233
2013-1-20,35,26,17,32,6,3,87,54,43,30.17,30.10,29.65,10,10,10,38,20,58,0.00,8,,286
2013-1-21,19,12,5,10,0,-8,68,59,46,30.11,30.03,29.96,10,7,1,22,11,29,0.00,7,Snow,301
2013-1-22,14,6,-1,1,-5,-9,70,59,41,30.25,30.20,30.10,10,10,2,16,8,22,0.00,4,Snow,285
2013-1-23,20,12,4,13,6,-2,79,70,61,30.25,30.14,30.03,10,6,1,13,6,,0.00,7,Snow,228
2013-1-24,19,12,6,7,3,-1,78,65,44,30.58,30.45,30.15,10,10,10,8,6,,0.00,0,,274
2013-1-25,24,20,15,19,12,3,80,68,57,30.44,30.11,29.95,10,7,2,12,7,,0.00,8,Snow,169
2013-1-26,32,27,21,18,16,11,78,65,45,30.39,30.24,30.02,10,10,5,12,6,17,0.00,6,Snow,300
2013-1-27,33,26,20,29,19,14,86,71,52,30.41,30.29,30.04,10,8,0,20,7,25,0.10,7,Snow,156
2013-1-28,46,40,33,43,35,29,89,84,70,30.03,29.90,29.81,10,5,0,18,9,24,0.02,8,Rain,226
2013-1-29,59,46,33,54,46,31,90,87,80,29.96,29.66,29.38,10,4,0,20,10,30,0.38,8,Fog-Rain-Snow,171
2013-1-30,57,44,29,53,41,20,93,85,68,29.37,29.24,29.10,10,5,0,25,10,37,0.43,8,Fog-Rain-Snow,261
2013-1-31,28,23,18,21,14,10,78,69,60,29.88,29.63,29.33,10,6,0,24,18,33,0.00,8,Snow,280